GFSSE_2pvu_pres_231.txt.gz
Presure
115 121 118 114 122 102 99 101 112 112 102 113 123 135 120 126 117 94 140 137 135 134 124 92 150 103 143 206 228 162 213 217 228 217 214 215 217 219 211 224 210 205 194
117 123 123 124 119 109 98 118 97 125 116 90 121 131 127 131 101 139 132 118 136 147 128 102 108 93 160 143 193 221 228 88 204 231 218 207 197 196 196 196 225 225 205
113 127 120 121 116 110 100 103 97 97 132 119 117 95 122 136 132 135 131 142 137 117 96 118 123 174 128 154 109 120 194 227 222 208 163 230 220 211 203 209 215 236 228
113 112 107 111 106 113 117 109 114 107 124 122 110 108 120 131 129 107 128 135 116 124 119 100 116 81 74 174 158 105 82 198 203 207 217 217 227 217 208 217 206 197 201
112 98 103 104 113 113 109 94 103 117 114 107 116 103 130 109 130 125 128 135 141 126 129 126 81 137 145 118 163 103 164 177 198 194 193 204 224 222 210 204 234 207 207
104 96 96 104 99 121 102 108 115 116 113 126 122 118 126 103 85 119 126 137 143 139 128 98 121 126 107 150 139 178 146 163 161 175 191 184 195 186 195 196 214 212 211
99 93 101 101 121 103 106 112 110 107 97 116 105 120 127 124 111 100 132 132 126 132 97 123 130 100 126 135 152 150 174 168 135 172 164 176 183 187 166 182 183 191 195
100 100 120 122 115 111 107 111 104 112 104 107 114 127 122 118 125 110 131 130 119 138 85 99 133 110 139 118 158 154 163 174 154 146 168 164 174 177 182 175 175 178 173
114 111 105 110 109 104 106 112 103 105 116 117 113 122 98 117 129 126 127 135 126 127 128 127 105 119 146 122 126 150 154 160 155 161 171 164 163 168 170 175 161 157 173
116 107 108 113 108 106 107 115 109 116 112 118 120 81 125 121 131 86 125 109 118 119 130 85 130 137 117 133 146 143 157 141 147 163 162 165 166 164 161 166 168 171 153
103 101 106 109 109 111 100 112 115 111 120 121 120 122 129 126 128 123 125 119 122 123 124 117 83 138 107 132 116 157 142 139 153 129 158 164 155 160 168 167 161 167 176
101 110 85 102 108 107 112 113 114 103 123 129 123 115 131 121 93 121 117 125 124 127 120 110 110 134 131 145 150 147 142 148 158 160 156 163 161 160 163 161 166 167 142
107 116 108 89 113 110 102 110 112 105 130 126 117 127 90 114 114 117 131 115 126 126 130 74 105 161 116 148 146 108 143 163 154 158 162 143 161 159 148 160 139 148 166
115 110 110 109 111 111 106 116 113 122 122 126 126 132 139 136 123 120 104 126 138 130 129 115 136 112 146 94 148 143 150 149 157 160 159 155 159 153 159 144 157 154 170
116 104 109 110 121 114 109 119 112 118 123 119 126 125 125 124 101 129 108 133 126 109 144 119 140 143 135 129 105 129 161 155 155 157 139 160 156 147 161 160 155 159 165
76 108 110 111 100 112 122 123 121 130 122 120 133 130 128 116 117 126 121 101 127 141 113 91 120 123 143 135 151 122 159 154 157 155 154 161 156 152 161 158 156 160 154
119 110 110 118 99 123 122 130 126 130 118 108 121 124 130 131 119 104 119 123 132 128 116 140 142 131 138 144 133 152 155 150 160 153 159 156 160 166 153 155 154 154 163
107 107 120 118 122 127 124 119 122 118 88 124 128 121 132 117 138 113 116 133 133 126 118 121 123 133 133 145 149 150 152 158 160 154 153 153 155 168 155 160 159 162 164
124 125 125 118 124 126 125 125 118 113 123 111 130 83 137 132 129 124 134 133 132 130 139 143 123 135 148 106 148 151 152 160 150 155 154 152 160 154 167 167 159 165 163
128 146 141 125 109 127 135 138 130 121 133 128 127 130 128 134 132 137 137 128 133 106 137 145 126 145 160 143 145 153 157 154 151 154 155 153 161 152 161 175 151 162 161
125 122 129 112 122 119 119 133 136 126 139 141 134 133 113 131 134 126 140 137 142 119 143 134 147 143 92 107 142 133 140 156 155 159 154 159 160 168 163 174 164 165 164
134 124 120 119 115 139 128 140 135 136 125 127 131 135 127 136 138 132 134 138 147 134 122 149 127 147 148 140 142 147 156 151 140 160 160 165 161 166 139 159 170 164 169
118 133 153 118 115 125 132 141 127 127 122 135 136 136 108 141 132 141 143 148 140 164 133 156 144 130 155 149 149 158 159 168 169 168 170 167 164 162 164 170 175 174 171
119 155 156 138 130 129 129 130 127 129 129 135 135 131 140 154 153 158 161 166 165 159 160 157 158 159 142 152 158 166 167 169 151 158 185 170 154 168 169 178 178 173 171
159 127 128 131 154 165 137 148 142 140 132 139 138 141 147 148 165 153 151 165 164 159 164 162 166 162 153 160 177 180 178 176 179 177 175 79 171 179 142 179 179 183 175
152 143 138 125 133 120 135 136 107 140 144 146 153 153 148 146 160 166 147 164 168 169 169 166 163 160 182 180 175 191 175 180 180 171 171 169 172 173 182 175 75 167 169

GFSSE_2pvu_pres_237.txt.gz
Presure
102 113 117 116 116 112 101 106 117 105 102 108 106 114 110 121 97 114 113 117 133 124 150 137 139 104 109 160 76 97 154 159 232 244 251 244 227 220 210 214 222 223 216
97 110 104 104 114 102 107 113 106 104 92 108 110 92 111 112 122 125 134 125 120 135 120 108 120 86 102 112 130 149 118 149 178 194 246 237 216 210 164 249 222 213 261
104 99 96 107 98 94 99 103 123 105 98 106 102 108 113 105 119 121 117 131 131 137 109 120 123 116 90 77 118 147 77 74 154 168 182 189 200 205 100 222 118 235 243
98 84 91 104 93 99 89 126 119 98 106 100 96 104 107 103 123 83 129 123 131 123 139 111 120 132 107 138 126 147 139 133 159 160 162 163 119 173 171 189 194 201 205
102 108 99 100 94 130 121 120 103 104 92 109 109 104 101 117 118 118 92 131 119 134 120 127 131 123 120 108 141 141 150 154 169 156 155 157 165 181 169 173 166 182 189
93 91 89 89 117 109 103 110 110 109 106 107 109 108 104 113 90 119 114 127 120 129 109 129 110 123 131 125 138 101 132 140 146 169 155 168 155 166 167 165 178 176 170
103 120 96 115 115 106 86 111 106 105 106 104 104 111 103 110 123 115 85 119 120 117 120 122 123 123 121 133 128 129 142 141 135 162 131 130 156 169 171 123 104 161 166
97 120 114 109 106 109 111 104 106 108 108 109 106 108 106 103 122 121 106 123 118 114 104 120 105 118 115 129 116 103 115 134 131 152 156 153 159 156 168 166 97 176 174
119 104 105 114 99 92 103 109 100 108 105 107 107 105 104 103 112 127 115 127 128 94 130 94 132 104 120 109 98 126 137 93 150 142 157 138 163 158 157 157 162 160 154
106 96 100 100 108 99 91 108 112 98 105 106 109 103 105 106 118 116 119 125 132 89 128 131 105 129 112 132 131 103 112 154 138 151 157 158 145 162 156 169 161 166 160
97 98 104 100 101 101 104 94 95 108 111 104 109 106 108 115 113 123 125 101 119 105 116 106 132 130 123 140 138 113 132 134 134 155 143 162 150 148 163 151 161 157 160
101 98 95 100 78 102 99 103 105 89 109 106 108 108 114 118 115 131 125 123 118 121 121 121 140 147 144 136 141 146 145 89 144 132 165 143 157 152 157 158 167 159 152
97 97 99 104 102 82 97 99 101 107 112 113 105 111 104 104 121 127 123 119 126 126 125 124 117 135 144 88 139 139 137 137 156 127 140 162 144 152 135 157 161 153 161
105 104 92 104 100 101 100 106 110 117 116 105 99 100 116 110 128 124 131 117 125 129 125 124 130 98 114 138 99 140 143 155 159 153 151 146 134 160 153 155 151 154 159
106 108 105 97 113 107 102 103 114 121 117 99 109 120 121 119 130 131 124 129 132 126 131 134 133 129 139 135 131 136 135 151 154 163 135 152 162 150 154 153 157 158 157
106 111 108 109 114 109 106 103 120 122 95 120 108 104 117 123 124 123 124 109 127 128 136 141 128 137 135 132 139 136 142 157 167 161 151 169 158 156 168 151 160 150 160
109 106 110 101 108 110 127 126 121 120 105 119 118 137 134 133 139 115 120 122 118 124 141 130 128 137 134 133 138 143 144 154 159 150 160 152 160 157 159 152 158 152 165
116 107 104 106 113 117 118 113 112 118 123 122 117 123 85 123 119 115 113 109 127 138 130 120 124 127 141 150 158 138 145 157 155 148 155 159 155 160 149 159 150 164 156
125 100 121 111 116 120 124 125 131 124 124 122 123 121 123 124 120 114 116 120 123 126 126 115 141 126 131 138 133 148 134 146 161 155 155 160 158 156 151 162 167 161 164
123 119 115 104 105 119 109 109 117 111 120 116 130 131 129 139 110 124 120 120 123 122 130 117 128 127 133 136 153 149 144 147 160 158 150 151 154 164 160 167 166 165 169
130 125 126 118 110 114 120 123 119 122 115 110 111 115 139 122 130 126 129 141 127 126 134 161 165 168 129 167 146 134 152 158 153 153 151 161 161 162 163 173 187 183 106
121 122 119 111 116 126 123 115 125 129 129 131 141 145 122 123 149 137 125 138 154 156 164 162 165 132 153 133 157 148 147 151 153 159 168 168 173 169 177 175 197 162 184
116 134 117 127 120 102 124 136 136 117 130 133 132 121 127 126 116 121 129 152 157 134 121 127 139 140 150 157 148 151 156 148 161 168 167 165 184 171 184 192 178 184 179
113 120 119 125 122 125 120 145 121 120 142 122 150 157 126 122 147 122 121 130 123 175 148 155 148 143 150 158 146 164 154 166 160 163 171 165 186 179 206 176 168 183 179
143 130 133 132 133 129 133 126 124 118 133 135 132 131 128 159 121 156 150 156 130 145 158 129 163 165 160 166 166 169 166 164 170 166 181 176 174 182 166 180 177 191 180
125 131 139 139 126 128 100 98 100 136 152 143 135 134 150 151 144 140 153 146 153 167 152 160 170 161 161 160 166 169 173 152 165 181 118 175 188 182 170 188 178 194 190

GFSSE_2pvu_pres_240.txt.gz
Presure
110 103 115 109 122 103 104 115 108 104 106 94 108 110 110 112 105 116 101 123 125 127 126 136 129 126 133 142 90 165 145 153 128 179 181 193 267 150 241 225 173 213 216
102 100 97 98 102 97 89 120 100 105 105 110 103 96 105 105 117 125 102 89 122 126 129 116 109 85 101 119 112 96 103 110 167 102 169 156 163 174 248 251 250 244 223
106 88 95 98 106 98 98 132 112 112 106 95 110 110 103 102 109 117 123 87 106 123 132 115 80 119 135 132 122 130 146 151 173 88 167 162 157 179 177 172 205 219 214
101 100 107 107 103 97 133 121 130 130 111 110 106 108 109 101 108 113 118 116 114 125 104 118 130 102 116 120 99 144 139 114 128 154 157 118 120 135 167 171 162 180 179
99 98 93 94 94 97 134 104 109 113 106 109 104 104 106 104 105 108 122 100 108 113 124 120 116 124 116 116 130 105 112 116 86 95 131 136 145 154 173 153 176 166 161
103 102 105 103 108 101 104 108 104 108 110 110 104 109 104 106 107 103 114 122 122 129 122 137 129 115 123 100 119 143 111 126 136 135 147 82 163 159 109 158 168 174 176
107 95 97 109 124 111 111 109 113 109 97 109 105 106 104 102 103 100 108 112 119 125 126 131 109 131 100 123 112 138 119 130 134 136 155 156 150 146 165 156 166 162 171
106 99 102 121 105 110 109 105 100 107 107 108 101 105 110 102 104 107 109 114 119 121 120 112 115 130 129 147 113 134 141 125 120 144 143 166 137 128 155 164 134 172 171
123 123 131 114 102 103 111 109 103 96 90 104 110 106 104 108 104 106 115 106 126 130 119 123 94 107 140 124 123 139 141 130 139 144 136 125 165 153 167 153 161 158 156
115 116 113 110 101 107 98 102 103 90 103 93 109 108 94 107 103 117 110 117 123 113 112 126 119 130 128 112 130 123 115 141 146 139 148 165 156 157 168 152 159 153 165
106 102 90 105 106 91 108 109 105 102 106 92 101 112 110 104 104 107 104 114 125 123 116 120 131 129 125 140 133 141 134 138 143 134 136 161 171 143 156 155 153 164 163
100 92 102 101 97 99 97 107 99 102 94 103 101 111 111 103 97 100 116 114 130 129 118 132 112 131 123 142 128 140 132 135 130 145 118 150 164 159 151 157 156 160 159
109 106 99 95 102 104 96 106 95 100 104 104 98 110 116 105 106 125 113 120 125 124 126 110 113 128 143 131 127 141 129 127 134 139 142 147 152 156 165 154 171 157 153
99 100 110 89 109 109 109 93 109 107 94 104 109 118 117 121 117 102 109 125 119 139 123 111 120 125 136 133 126 122 134 150 136 136 150 135 164 163 153 167 151 159 150
114 115 113 96 96 103 100 103 111 111 91 99 100 117 110 122 103 113 128 129 131 126 122 122 124 129 137 134 124 138 132 131 135 153 132 149 145 163 154 157 151 158 157
104 107 103 103 73 108 109 111 103 104 102 115 120 117 115 111 120 123 120 118 120 116 123 117 137 128 130 130 146 131 150 158 141 151 140 143 161 150 151 151 157 155 158
116 117 79 100 107 113 108 106 117 119 120 112 114 107 117 124 123 121 122 130 132 135 130 126 124 120 120 119 158 140 125 159 135 122 138 149 149 145 157 153 157 152 156
81 112 121 104 100 107 115 119 109 118 123 119 118 125 124 123 114 117 120 127 123 105 123 132 123 128 146 131 134 159 162 145 128 142 144 163 144 153 158 161 161 168 166
119 116 111 117 109 99 117 106 120 118 103 111 103 117 116 111 117 111 116 116 119 138 113 119 141 127 133 149 137 133 124 131 142 152 145 149 153 143 162 166 161 165 171
118 101 100 112 113 112 114 93 120 118 119 111 116 122 127 127 127 120 125 126 142 143 130 143 124 126 148 159 123 163 137 166 142 152 159 141 161 158 165 162 167 165 174
127 120 117 120 117 118 117 118 121 123 122 111 123 125 121 127 121 118 114 134 132 122 121 127 127 121 124 121 134 120 156 127 151 159 152 166 162 163 162 166 168 171 183
118 102 117 122 129 127 129 115 115 114 109 118 107 110 118 126 129 130 123 120 145 150 157 146 116 98 157 137 136 157 130 131 165 159 158 163 170 166 162 175 170 176 174
114 112 112 116 124 130 121 132 122 119 117 118 119 125 111 121 131 146 118 140 125 144 136 131 120 149 146 148 136 157 164 160 134 161 157 162 173 175 167 172 174 191 175
120 94 108 104 115 122 125 127 118 124 125 124 128 121 110 126 138 130 124 134 142 129 127 132 161 158 154 163 171 167 157 163 160 165 169 158 172 174 173 176 176 154 178
120 128 104 122 122 120 135 131 131 132 129 131 87 131 125 119 133 119 127 133 136 128 137 151 141 163 162 169 161 161 170 175 173 172 174 172 171 178 181 181 196 205 200
116 115 91 131 121 124 126 130 79 147 150 145 134 134 135 126 126 140 129 139 160 157 138 161 166 169 160 169 171 176 171 176 176 179 180 177 180 195 207 196 180 201 183

GFSSE_2pvu_pres_246.txt.gz
Presure
109 107 114 104 102 97 103 97 118 96 99 109 108 104 107 111 96 109 103 121 130 108 113 133 118 92 113 136 99 106 107 155 130 144 159 129 165 140 149 162 208 170 242
97 103 96 97 106 103 99 90 112 119 138 105 106 102 98 103 86 107 99 109 106 84 124 118 117 131 122 116 145 67 145 142 122 124 160 167 174 118 118 103 139 80 195
106 109 98 96 101 90 92 105 122 115 111 109 103 102 108 108 97 103 103 96 111 105 116 128 116 122 96 119 120 78 131 134 77 128 135 147 166 163 166 160 166 175 155
111 111 114 104 107 111 95 121 128 119 103 109 108 108 106 104 108 108 101 104 108 115 116 118 110 114 103 132 133 128 104 107 117 109 96 135 132 167 130 120 132 107 140
119 109 98 108 92 89 94 122 114 109 108 108 99 102 101 108 103 108 108 99 115 108 111 110 125 129 113 125 83 131 144 119 111 108 81 128 135 118 162 136 153 148 162
113 109 107 108 102 99 90 123 96 107 120 100 95 100 102 111 104 112 109 99 108 114 104 111 123 125 120 122 108 127 137 116 119 143 114 133 134 137 149 80 172 154 181
114 116 110 106 106 102 99 120 95 77 108 96 101 97 108 105 108 112 111 113 101 101 112 118 87 121 125 125 117 123 116 135 139 123 143 127 157 145 147 145 143 161 158
104 109 111 108 103 107 96 116 113 97 103 105 99 107 102 105 107 110 111 116 104 104 121 112 111 125 131 124 107 113 126 141 126 125 124 130 167 145 147 137 137 143 142
111 110 112 110 129 128 131 110 87 104 104 98 111 96 103 109 103 93 107 116 108 123 120 107 128 126 125 122 122 111 135 126 151 144 130 134 127 172 165 136 137 138 155
128 126 67 108 107 117 104 98 103 104 106 97 103 102 110 105 104 103 90 113 114 108 102 113 124 123 116 132 126 109 121 131 130 118 159 152 165 124 124 141 155 167 152
107 134 105 106 114 98 97 112 105 100 95 108 110 77 102 110 103 103 95 110 127 103 111 112 119 122 117 132 126 116 133 116 132 149 126 147 123 129 143 166 136 140 145
108 101 106 109 109 106 109 99 107 103 96 108 98 105 112 112 113 104 111 115 123 118 111 120 119 113 117 127 119 109 137 133 141 118 120 159 118 133 131 156 133 132 157
97 103 104 95 111 110 115 101 108 112 105 99 96 108 105 102 102 102 108 123 116 117 121 126 119 117 120 118 121 121 130 128 121 141 122 123 132 169 150 140 144 151 161
107 105 96 109 112 117 117 115 112 106 106 107 111 100 103 98 113 109 116 116 120 118 109 112 116 112 120 129 117 125 128 125 146 141 127 133 139 151 131 161 151 156 163
112 104 105 93 107 111 111 117 119 116 116 110 100 109 109 112 112 123 106 113 121 101 117 116 119 124 121 118 130 131 126 146 125 130 126 122 122 161 160 147 124 160 156
97 104 76 111 87 111 105 99 105 115 114 115 117 118 108 107 110 114 120 118 118 114 115 116 115 120 123 124 114 107 136 126 140 143 135 134 131 159 126 166 162 161 157
103 109 105 110 67 104 109 85 96 117 113 106 115 118 121 122 110 118 112 119 118 117 109 120 119 115 116 110 125 127 117 131 123 135 137 127 127 162 154 166 158 169 169
86 100 120 118 112 110 75 118 116 118 109 110 114 95 118 120 116 111 118 110 111 123 117 113 121 122 128 121 121 119 122 121 137 128 140 143 166 161 155 153 170 162 164
117 117 115 107 117 79 95 101 118 121 122 116 118 110 110 112 119 119 117 117 120 123 120 119 117 124 125 123 131 128 126 119 127 126 139 155 159 166 162 164 162 168 170
111 116 117 122 97 109 116 118 104 117 123 116 115 116 118 119 119 120 122 123 124 124 112 121 120 124 127 120 130 120 126 130 128 125 150 153 159 171 156 169 170 165 160
109 94 130 112 82 112 111 112 106 106 118 124 121 120 121 118 122 123 117 126 116 128 121 119 116 124 131 132 134 146 141 134 120 147 147 148 157 169 167 177 170 163 175
98 124 114 103 71 120 116 118 119 118 117 115 114 116 119 111 116 107 119 121 110 121 132 128 122 138 121 119 133 131 127 131 135 130 146 147 167 166 163 172 171 173 174
127 121 129 83 75 127 123 115 120 115 112 113 113 115 110 121 113 119 119 130 123 130 119 123 123 120 125 113 140 142 121 135 124 142 151 164 165 169 171 176 180 170 172
124 114 116 72 104 118 122 107 116 125 126 124 124 126 113 125 131 127 128 135 132 125 133 128 132 128 142 146 135 133 133 126 133 137 133 162 169 176 170 171 181 171 181
110 90 112 115 130 85 120 120 111 117 121 123 123 125 132 130 124 130 132 131 136 126 138 127 127 119 132 128 140 130 140 143 144 133 159 151 164 172 179 186 172 177 182
128 126 123 121 118 123 129 72 127 106 120 121 115 112 127 120 135 134 142 138 147 122 118 147 123 119 139 138 129 161 159 160 165 176 169 137 176 175 182 177 177 190 201